Theta_e
299 300 302 309 314 316 320 322 324 326 328 328 329 329 329 328 328 328 327 323 320 320 315 310 309 307 304 300 299 298 296 293
297 298 299 300 303 308 313 317 319 321 324 326 327 328 328 328 328 328 325 322 319 315 310 308 305 304 300 297 296 295 293 292
297 298 297 297 298 299 301 307 312 315 318 320 323 323 325 326 327 324 324 318 315 310 307 304 303 301 298 296 295 293 290 290
297 297 297 298 299 299 300 301 302 306 311 315 317 319 321 322 320 316 312 311 309 308 304 302 301 298 297 295 293 291 290 289
297 297 298 298 299 299 300 301 302 303 305 309 311 314 317 318 314 310 307 306 304 305 303 302 299 297 295 293 291 290 290 288
297 297 298 298 299 300 301 301 302 302 302 304 308 312 311 309 306 303 301 303 302 300 299 298 296 295 293 291 290 289 288 287
297 297 298 298 298 300 301 301 302 301 301 302 303 301 301 298 296 295 294 294 294 292 292 292 293 293 292 290 288 287 287 286
297 298 297 298 299 298 300 300 299 297 294 294 292 292 293 293 292 291 291 290 290 289 288 288 288 292 292 290 287 286 286 285
297 296 297 299 299 299 299 298 294 292 291 290 290 289 287 288 289 288 288 288 287 287 287 287 286 292 291 289 286 286 285 285
296 297 297 297 297 295 292 291 291 290 290 288 288 285 287 286 286 286 286 285 285 285 285 285 287 291 290 287 285 284 284 284
296 296 295 294 294 290 290 289 289 289 289 288 286 286 287 286 285 283 284 284 284 284 285 285 286 290 289 287 285 284 283 282
294 293 292 290 288 288 288 288 288 287 285 283 283 284 286 285 283 284 284 283 283 284 285 286 287 288 289 287 284 283 281 281
290 288 288 285 287 286 285 285 281 281 280 279 280 282 285 285 284 283 283 283 282 283 282 283 285 287 289 288 286 285 281 280
284 283 283 282 283 283 282 281 279 278 276 277 278 285 285 285 283 282 283 282 281 281 281 281 282 286 288 287 286 286 282 282
280 279 279 280 281 279 280 278 278 277 277 277 277 277 281 283 283 283 282 282 281 280 280 280 281 283 285 284 283 284 282 283
278 278 277 278 277 277 279 279 281 276 276 276 277 277 277 280 282 281 282 283 282 282 282 279 279 281 284 283 282 282 281 280
275 275 274 274 273 273 275 277 276 276 275 275 275 275 275 275 274 283 283 285 286 285 283 281 282 284 285 285 284 284 283 277
272 272 272 270 270 270 272 275 275 275 274 274 275 273 272 272 273 273 278 283 284 285 284 284 283 284 285 285 285 284 283 278
268 268 267 266 266 267 269 271 273 272 273 272 272 271 271 271 271 272 272 272 276 282 282 283 283 284 284 284 284 280 282 280
264 263 263 263 264 265 267 268 268 270 269 269 269 270 271 270 270 270 270 271 273 276 279 280 283 284 284 284 281 279 279 276
Wind_Speed
6 5 3 7 8 8 9 13 14 14 14 15 16 16 16 12 14 14 12 12 13 13 11 11 10 10 9 6 7 11 7 5
3 3 6 4 6 8 9 10 10 12 14 14 14 16 14 15 13 14 10 13 14 14 13 12 12 12 11 10 9 10 10 8
2 3 3 4 4 5 5 6 7 7 8 9 9 9 11 13 13 8 11 11 12 12 11 11 12 13 13 13 13 13 13 11
2 3 5 5 6 7 7 7 6 6 6 7 8 8 11 11 8 7 7 9 9 10 11 12 13 13 11 13 14 14 12 14
2 3 3 4 4 5 6 7 7 7 6 5 6 6 6 5 5 6 6 9 9 11 10 12 12 13 12 12 11 11 12 10
3 3 3 3 5 6 5 6 5 7 7 7 6 6 6 6 6 5 6 6 7 8 8 8 10 9 13 15 13 13 12 9
4 4 5 6 7 6 7 6 5 5 6 4 6 6 6 6 5 6 5 6 6 7 8 10 8 12 14 10 12 11 13 12
7 6 5 7 6 7 7 4 5 4 2 2 3 3 5 7 7 6 6 5 5 6 7 7 5 15 15 15 10 8 9 11
4 6 7 4 0 2 3 4 4 2 3 3 4 4 3 3 4 5 5 6 5 5 5 5 4 16 15 12 9 7 6 6
5 4 5 6 4 5 5 5 4 2 3 2 3 3 4 2 4 3 5 5 6 6 8 8 8 17 17 14 7 6 8 6
6 6 8 8 6 6 4 2 1 2 3 4 5 5 6 6 5 2 1 2 3 4 6 8 8 17 20 16 8 9 7 5
7 8 8 6 6 7 6 6 3 2 4 4 4 4 4 4 2 4 4 4 3 4 4 7 8 12 20 16 8 7 6 6
7 7 7 7 6 7 7 3 3 3 3 3 3 2 3 5 4 5 7 5 4 5 2 2 5 10 14 11 8 12 8 8
5 5 6 6 6 6 6 4 4 5 4 2 2 3 4 5 5 3 4 4 4 4 4 2 3 6 14 12 8 8 3 1
4 6 7 7 8 6 5 3 4 4 3 3 3 3 3 2 2 4 5 4 4 5 4 3 2 2 4 5 4 8 4 8
5 6 7 7 9 9 9 7 5 4 3 2 3 4 3 3 3 1 2 5 5 5 5 6 5 4 9 9 6 4 6 5
8 8 8 9 10 11 11 8 5 4 3 2 1 1 1 2 3 5 2 7 6 7 7 4 8 15 15 15 14 14 16 3
9 8 9 9 9 9 10 8 7 5 4 3 3 3 2 2 3 3 4 6 4 8 12 15 16 21 23 21 18 17 15 5
8 9 7 7 10 9 7 6 6 5 6 4 3 2 1 2 2 3 3 2 1 3 4 5 6 11 14 16 14 7 11 5
8 8 6 7 8 9 8 5 4 3 2 2 2 2 2 3 4 3 2 2 2 1 2 1 6 9 13 16 6 6 5 2
Wind_Direction
209 220 222 194 194 203 209 215 218 219 214 216 212 214 217 214 213 209 195 181 180 186 176 166 163 161 154 154 157 151 148 145
24 261 226 224 206 207 203 206 216 214 221 217 217 214 210 214 213 212 191 185 181 177 172 173 169 168 162 158 162 154 151 148
317 313 318 235 249 246 244 225 219 210 212 221 219 216 213 217 220 202 190 179 177 169 173 174 177 174 167 166 171 165 164 163
205 210 226 230 220 222 221 233 233 229 226 223 220 203 209 208 196 182 161 165 158 162 174 176 182 178 179 174 171 162 177 165
195 203 219 214 233 237 233 224 218 205 205 220 218 209 211 195 156 147 148 154 164 173 184 186 185 180 167 163 181 165 161 165
247 248 244 238 232 240 242 227 215 197 203 216 201 164 131 140 146 149 166 182 173 168 170 179 178 184 182 168 171 159 155 160
291 262 248 242 238 224 225 219 189 201 223 212 156 129 130 129 141 151 161 158 156 170 172 175 192 176 166 173 157 168 160 162
271 282 269 243 221 224 217 197 185 196 221 162 121 139 163 157 156 170 173 154 168 166 163 177 170 171 166 155 145 161 166 165
353 345 340 334 148 196 174 164 164 175 167 165 174 174 152 157 161 149 148 167 165 166 170 148 163 165 157 151 131 156 152 163
357 332 349 26 36 81 85 94 113 181 229 228 168 137 146 168 180 187 153 158 174 164 160 164 161 166 157 150 139 166 147 142
352 29 34 10 36 67 54 55 289 246 212 184 176 175 179 168 155 104 37 77 125 140 152 147 163 173 168 160 153 161 150 126
44 50 28 10 32 48 42 19 327 142 137 146 153 159 145 128 104 118 103 101 120 126 139 144 161 177 176 166 154 159 147 150
63 51 23 15 45 61 51 356 34 64 83 100 120 125 126 134 127 136 128 141 132 126 104 88 137 164 181 173 163 160 153 179
52 58 31 24 31 51 355 14 52 61 57 57 106 108 120 139 142 131 133 145 154 163 161 153 141 163 171 170 164 150 105 191
46 50 40 23 33 26 355 14 74 93 93 88 94 83 88 77 143 149 161 165 165 171 180 157 136 149 134 132 137 151 126 149
52 52 38 23 29 14 3 7 28 35 39 82 115 140 138 140 156 144 185 179 180 185 167 154 160 172 153 159 161 153 139 124
46 47 33 36 28 10 1 2 19 28 5 3 41 24 86 104 46 55 106 202 195 173 141 122 148 171 179 179 176 180 175 148
48 42 38 36 33 9 359 3 17 24 8 16 16 18 57 50 71 61 20 62 120 153 161 177 181 185 188 189 188 189 183 192
55 45 33 29 22 349 346 4 22 24 23 13 22 36 18 117 136 123 128 118 40 124 147 171 195 195 194 190 181 191 207 210
52 32 23 34 13 341 337 356 26 24 11 28 43 31 50 50 42 66 92 117 114 110 71 106 166 185 191 190 195 204 218 197